TimeCST,TemperatureF,Dew PointF,Humidity,Sea Level PressureIn,VisibilityMPH,Wind Direction,Wind SpeedMPH,Gust SpeedMPH,PrecipitationIn,Events,Conditions,WindDirDegrees,DateUTC
12:52 AM,32.0,28.0,85,30.18,8.0,East,4.6,-,N/A,,Clear,90,2013-02-09 06:52:00
1:52 AM,33.1,28.9,85,30.16,8.0,East,4.6,-,N/A,,Clear,100,2013-02-09 07:52:00
2:52 AM,32.0,28.9,88,30.15,9.0,East,4.6,-,N/A,,Clear,90,2013-02-09 08:52:00
3:52 AM,33.1,28.9,85,30.12,10.0,SE,5.8,-,N/A,,Clear,130,2013-02-09 09:52:00
4:52 AM,33.1,28.9,85,30.10,9.0,East,5.8,-,N/A,,Clear,100,2013-02-09 10:52:00
5:52 AM,33.1,28.9,85,30.09,9.0,East,3.5,-,N/A,,Clear,100,2013-02-09 11:52:00
6:52 AM,36.0,30.0,79,30.09,10.0,South,6.9,-,N/A,,Clear,170,2013-02-09 12:52:00
7:52 AM,36.0,30.9,82,30.09,10.0,South,6.9,-,N/A,,Clear,170,2013-02-09 13:52:00
8:52 AM,37.9,33.1,83,30.08,10.0,South,5.8,-,N/A,,Clear,180,2013-02-09 14:52:00
9:52 AM,41.0,34.0,76,30.06,10.0,South,9.2,-,N/A,,Clear,170,2013-02-09 15:52:00
10:52 AM,46.0,36.0,68,30.02,10.0,South,13.8,26.5,N/A,,Clear,180,2013-02-09 16:52:00
11:52 AM,50.0,37.9,63,29.99,10.0,South,17.3,-,N/A,,Clear,170,2013-02-09 17:52:00
12:52 PM,53.1,39.0,59,29.94,10.0,South,19.6,28.8,N/A,,Clear,170,2013-02-09 18:52:00
1:52 PM,53.1,39.0,59,29.89,10.0,SSE,17.3,-,N/A,,Partly Cloudy,150,2013-02-09 19:52:00
2:52 PM,51.1,37.9,61,29.87,10.0,SSE,16.1,23.0,N/A,,Mostly Cloudy,160,2013-02-09 20:52:00
3:52 PM,50.0,37.0,61,29.84,10.0,South,13.8,23.0,N/A,,Overcast,170,2013-02-09 21:52:00
4:52 PM,46.0,37.0,71,29.83,10.0,SSE,13.8,21.9,0.00,Rain,Light Rain,150,2013-02-09 22:52:00
5:52 PM,45.0,36.0,71,29.78,10.0,SE,12.7,24.2,0.00,Rain,Light Rain,140,2013-02-09 23:52:00
6:52 PM,44.1,36.0,73,29.78,10.0,SSE,15.0,21.9,N/A,,Overcast,160,2013-02-10 00:52:00
7:38 PM,42.8,35.6,76,29.77,10.0,SSE,15.0,21.9,N/A,,Overcast,160,2013-02-10 01:38:00
7:52 PM,43.0,36.0,76,29.78,10.0,SSE,10.4,-,N/A,,Overcast,150,2013-02-10 01:52:00
8:29 PM,42.8,37.4,81,29.73,6.0,SSE,12.7,-,0.00,Rain,Light Rain,150,2013-02-10 02:29:00
8:39 PM,42.8,37.4,81,29.72,6.0,SSE,11.5,-,0.00,,Overcast,150,2013-02-10 02:39:00
8:52 PM,42.1,37.9,85,29.74,6.0,SSE,10.4,19.6,0.00,,Overcast,150,2013-02-10 02:52:00
9:24 PM,42.8,37.4,81,29.71,9.0,SSE,15.0,20.7,N/A,,Overcast,160,2013-02-10 03:24:00
9:52 PM,42.1,37.9,85,29.72,9.0,SSE,16.1,23.0,N/A,,Overcast,160,2013-02-10 03:52:00
10:52 PM,43.0,37.9,82,29.67,8.0,South,17.3,26.5,N/A,,Overcast,170,2013-02-10 04:52:00
11:41 PM,42.8,39.2,87,29.69,8.0,South,16.1,21.9,N/A,,Overcast,180,2013-02-10 05:41:00
11:52 PM,43.0,39.9,89,29.68,6.0,South,12.7,20.7,0.00,Rain-Thunderstorm,Light Rain,170,2013-02-10 05:52:00